Regional Weather Roundup
Issued by NWS

Home | Current Version | Previous Version | Graphics & Text | Print | Product List | Glossary Off
Versions: 1 2 3 4 5 6 7 8 9 10 11 12 13 14 15 16 17 18 19 20 21 22 23 24 25 26 27 28 29 30 31 32 33 34 35 36 37 38 39 40 41 42 43 44 45 46 47 48 49 50

719
ASUS43 KMPX 270601
RWRMN
WEATHER ROUNDUP FOR MINNESOTA
NATIONAL WEATHER SERVICE TWIN CITIES/CHANHASSEN MN
100 AM CDT TUE SEP 27 2016


NOTE: "FAIR" INDICATES FEW OR NO CLOUDS BELOW 12,000 FEET WITH NO
SIGNIFICANT WEATHER AND/OR OBSTRUCTIONS TO VISIBILITY. N/A MEANS
CURRENT SKY AND/OR WEATHER CONDITIONS ARE NOT AVAILABLE.

MNZ060>063-068>070-270700-
   Twin Cities Metro

CITY           SKY/WX    TMP DP  RH WIND       PRES   REMARKS
TWIN CITIES    CLEAR     55  36  48 W12       29.85F
6HR MIN TEMP:  55; 6HR MAX TEMP:  61;

ST PAUL        CLEAR     54  38  54 W10       29.85F
CRYSTAL        CLEAR     52  35  52 W9        29.84F
BLAINE         CLEAR     52  41  66 W7        29.84S
LAKEVILLE      CLEAR     50  36  57 W8        29.87F
EDEN PRAIRIE   CLEAR     51  36  56 W8        29.86F
6HR MIN TEMP:  50; 6HR MAX TEMP:  64;

LAKEVILLE      CLEAR     50  36  57 W8        29.87F
SOUTH ST PAUL  CLEAR     55  36  48 W10       29.85S
LAKE ELMO      FAIR      52  41  66 W8        29.84F
$$
MNZ001>005-007-008-013>017-022>024-027-028-270700-
   Northwest Minnesota

CITY           SKY/WX    TMP DP  RH WIND       PRES   REMARKS
BEMIDJI        CLOUDY    47  40  78 NW13G25   29.83S
HALLOCK        CLEAR     48  43  81 NW10      29.90F
ROSEAU         CLOUDY    52  45  76 NW12G17   29.83F
WARROAD        CLOUDY    50  46  87 NW14G20   29.82S
THIEF RVR FALL CLEAR     46  42  86 NW14      29.89F
CROOKSTON      CLEAR     43  43 100 NW10      29.93S
FOSSTON        CLEAR     45  39  81 W13G20    29.89S
DETROIT LAKES  CLEAR     46  41  81 NW12      29.92S
MOORHEAD       PTCLDY    45  34  65 NW9       29.95S
PARK RAPIDS    CLEAR     47  38  71 NW10      29.85F
MAHNOMEN       FAIR      44  42  90 NW12      29.90S
$$
MNZ006-009>011-018-025>026-270700-
   North Central Minnesota

CITY           SKY/WX    TMP DP  RH WIND       PRES   REMARKS
BAUDETTE       CLOUDY    51  45  79 NW20G26   29.76F
FLAG ISLAND    CLOUDY    52  46  82 NW20G26   29.76S
INTL FALLS     CLOUDY    50  46  86 NW14G25   29.69S
6HR MIN TEMP:  49; 6HR MAX TEMP:  50; 6HR PCP:  0.20;

WASKISH        CLOUDY    52  45  76 NW17G23   29.79S
BIG FORK       CLOUDY    50  43  76 W10G16    29.74F
GRAND RAPIDS   CLOUDY    51  42  71 NW20G31   29.77S
ORR            CLOUDY    48  45  87 NW14G23   29.66F
COOK           DRIZZLE   48  46  93 W14G20    29.68F
WALKER         MOCLDY    46  40  81 W10       29.82F
$$
MNZ012-019>021-037-270700-
   Northeast Minnesota

CITY           SKY/WX    TMP DP  RH WIND       PRES   REMARKS
DULUTH         CLOUDY    52  44  74 NW18G28   29.68F
6HR MIN TEMP:  51; 6HR MAX TEMP:  53; 6HR PCP: TRACE;

ELY            RAIN      48  46  93 NW8       29.62S
HIBBING        CLOUDY    48  44  86 NW14G23   29.71S
EVELETH        MOCLDY    49  47  90 W15G26    29.69F
DULUTH HARBOR  CLOUDY    55  46  71 W17       29.70F
TWO HARBORS    CLOUDY    54  46  76 W13G21    29.63F
SILVER BAY     DRIZZLE   50  48  93 W3        29.60S
GRAND MARAIS     N/A     51  48  89 SW7       29.51S
G MARAIS ARPRT CLOUDY    45  41  87 W9G20     29.52S
$$
MNZ029>031-032-039>041-046>048-054>057-064-270700-
   West Central Minnesota

CITY           SKY/WX    TMP DP  RH WIND       PRES   REMARKS
FERGUS FALLS   CLEAR     43  36  75 N3        29.96S
MORRIS         CLEAR     50  36  57 NW13      29.93S
ALEXANDRIA     CLEAR     47  35  63 NW10      29.92S
ELBOW LAKE     FAIR      46  36  69 W10       29.93S
GLENWOOD       CLEAR     46  36  66 W9        29.91S
BENSON         CLEAR     46  36  66 NW6       29.93S
ORTONVILLE     CLEAR     52  37  58 NW10      29.96S
MADISON          N/A     54  39  58 W10       29.96S
WILLMAR        FAIR      46  37  71 W8        29.94S
$$
MNZ033>034-036-042>043-049>051-058-059-270700-
   Central Minnesota

CITY           SKY/WX    TMP DP  RH WIND       PRES   REMARKS
ST CLOUD       CLEAR     50  38  63 W10       29.87R
6HR MIN TEMP:  49; 6HR MAX TEMP:  59;

SAUK CENTRE    FAIR      46  34  64 NW6       29.90S
PAYNESVILLE    CLEAR     44  35  71 W7        29.90S
AITKIN         CLOUDY    54  39  58 W7        29.78F
PINE RIVER     CLEAR     48  41  76 NW10G17   29.86S
BRAINERD       CLEAR     50  41  71 NW14G21   29.83F
STAPLES        CLEAR     46  39  76 W10       29.86F
LONG PRAIRIE   FAIR      46  34  61 W9        29.89F
LITTLE FALLS   CLEAR     46  39  76 W7        29.86F
LITCHFIELD     CLEAR     54  37  54 W9        29.90F
BUFFALO        CLEAR     51  37  58 W6        29.88S
MAPLE LAKE     CLEAR     52  37  56 W8        29.88S
HUTCHINSON     CLEAR     45  38  78 W7        29.92S
$$
MNZ037-044-045-052-053-270700-
   East Central Minnesota

CITY           SKY/WX    TMP DP  RH WIND       PRES   REMARKS
PRINCETON      CLEAR     50  43  76 W7        29.85S
MORA           MOCLDY    50  39  66 W9        29.82S
CAMBRIDGE      CLEAR     54  41  62 W9        29.81F
MOOSE LAKE     CLOUDY    52  41  66 W9        29.73F
HINCKLEY       FAIR      52  41  66 W8G16     29.78F
CLOQUET        CLOUDY    52  41  66 W16G24    29.71F
MCGREGOR       CLOUDY    52  41  66 W14       29.77S
$$
MNZ071>073-080-081-089-090-097-098-270700-
   Southwest Minnesota

CITY           SKY/WX    TMP DP  RH WIND       PRES   REMARKS
MONTEVIDEO     CLEAR     50  37  62 NW7       29.96F
GRANITE FALLS  CLEAR     48  40  72 W9        29.97S
CANBY          CLEAR     51  38  62 NW8       29.99S
MARSHALL       CLEAR     49  37  63 W10       29.97F
REDWOOD FALLS  CLEAR     49  37  63 W10       29.94F
OLIVIA         CLEAR     50  37  62 W8        29.92F
PIPESTONE      CLEAR     48  34  57 NW6       30.01F
WINDOM         CLEAR     45  37  76 W8        29.98F
WORTHINGTON    CLEAR     48  35  60 W7        30.01F
JACKSON        CLEAR     54  32  43 NW10      29.99S
TRACY          CLEAR     52  38  59 W5        29.98F
$$
MNZ065>067-074>077-082>085-091>093-270700-
   South Central Minnesota

CITY           SKY/WX    TMP DP  RH WIND       PRES   REMARKS
MANKATO        CLEAR     52  37  56 W10       29.92F
ST JAMES       CLEAR     52  37  58 W9        29.96F
FAIRMONT       CLEAR     52  37  56 W10       29.96F
GLENCOE        CLEAR     49  39  67 W7        29.90S
FARIBAULT      CLEAR     52  37  58 W10       29.90S
OWATONNA       CLEAR     50  37  62 SW8       29.90F
WASECA         CLEAR     46  36  66 W8        29.93F
ALBERT LEA     CLEAR     52  37  58 W6        29.93F
$$
MNZ078>079-086>088-094>096-270700-
   Southeast Minnesota

CITY           SKY/WX    TMP DP  RH WIND       PRES   REMARKS
ROCHESTER      CLEAR     51  37  58 W9        29.89F
6HR MIN TEMP:  51; 6HR MAX TEMP:  61;

RED WING       CLEAR     50  39  66 W5        29.83F
DODGE CENTER   CLEAR     46  37  71 W8        29.90S
WINONA         CLEAR     55  36  47 W8G18     29.85S
AUSTIN         CLEAR     52  36  54 W8        29.91F
PRESTON        CLEAR     50  34  54 W10       29.89F
$$
ABBREVIATIONS USED IN REMARKS
   TC - TEMPERATURES IN CELSIUS
  WCI - WIND CHILL INDEX
   HX - HEAT INDEX
  VSB - VISIBILITY
$$




USA.gov is the U.S. government's official web portal to all federal, state and local government web resources and services.